Погода в Пернеме

Индия     15°43′12″N   73°47′52″E
темп.,
°C
ветер,
м/с
пор.,
м/с
влажн.,
%
обл.,
%
осадки,
мм/ч
давл.,
гПа
погр.,
м
21 апреля, ср
ср2123:30+27зсз0172100 0.0 101155
02:30+26с117651 0.0 100961
05:30+24всв1282100 0.0 101046
08:30+29ссз1361100 0.0 1012668
11:30+35з453660 0.0 10111493
14:30+34з76435 0.0 1008941
17:30+31сз795180 0.0 1008836
20:30+28сз596696 0.0 1010699
22 апреля, чт
чт2223:30+27ссз387017 0.0 1011504
02:30+25с1178100 0.0 100952
05:30+24всв2281100 0.0 101046
08:30+29с2559100 0.0 1012665
11:30+34з5539100 0.0 10111271
14:30+33зсз7749100 0.0 1008790
17:30+31зсз564965 0.0 1008912
20:30+28сз3766100 0.0 1010416
23 апреля, пт
пт2323:30+26сз2374100 0.0 101188
02:30+25св117961 0.0 100943
05:30+23в11836 0.0 101023
08:30+29всв12645 0.0 1012577
11:30+33з554552 0.0 10111357
14:30+33з6548100 0.0 1008960
17:30+30зсз5654100 0.0 1008951
20:30+28сз376589 0.0 1010436
24 апреля, сб
сб2423:30+25ссз247230 0.0 1011109
02:30+24с1178100 0.0 100933
05:30+23св1182100 0.0 101031
08:30+29с2458100 0.0 1011612
11:30+35зсз5534100 0.0 10101282
14:30+33зсз8747100 0.0 1007677
17:30+31зсз67500 0.0 1008876
20:30+28сз48650 0.0 1010580
25 апреля, вс
вс2523:30+26ссз25740 0.0 1010212
02:30+24св22790 0.0 100947
05:30+23ссв11832 0.0 101022
08:30+29ссз13603 0.0 1012583
11:30+35з55422 0.0 10101281
14:30+33з77515 0.0 1007833
17:30+31зсз675949 0.0 1007975
20:30+28сз37715 0.0 1009486